North Las Vegas, NV

7:55 AM PDT on March 29, 2017 (GMT -0700)
North Las Vegas

Weather History for KVGT - June, 2012

Change the Weather History Date:

Thursday, June 21, 2012

  Actual Average Record
Temperature  
Mean Temperature 92 °F 87 °F  
Max Temperature 106 °F 100 °F 115 °F (1954)
Min Temperature 78 °F 74 °F 67 °F (2010)
Degree Days  
Heating Degree Days 0 0  
Month to date heating degree days 0  
Since 1 July heating degree days 2044  
Cooling Degree Days 27 22  
Month to date cooling degree days 396  
Year to date cooling degree days 872  
Growing Degree Days 42 (Base 50)    
Moisture  
Dew Point 22 °F    
Average Humidity 8    
Maximum Humidity 17    
Minimum Humidity 4    
Precipitation  
Precipitation 0.00 in 0.01 in 0.00 in (2017)
Month to date precipitation 0.07  
Year to date precipitation 2.66  
Sea Level Pressure  
Sea Level Pressure 29.71 in    
Wind  
Wind Speed 6 mph (SSW)    
Max Wind Speed 20 mph    
Max Gust Speed 31 mph    
Visibility 10 miles    
Events      
T = Trace of Precipitation, MM = Missing Value Source: NWS Daily Summary

Daily Weather History Graph

Daily Weather History Graph

Search for Another Location

Airport or City:

Trip Planner

Search our weather history database for the weather conditions in past years. The results will help you decide how hot, cold, wet, or windy it might be!

Date:

Astronomy

Jun. 21, 2012 Rise Set
Actual Time 5:23 AM PDT 8:01 PM PDT
Civil Twilight 4:53 AM PDT 8:31 PM PDT
Nautical Twilight 4:15 AM PDT 9:09 PM PDT
Astronomical Twilight 3:33 AM PDT 9:51 PM PDT
Moon 7:23 AM PDT (6/21) 9:31 PM PDT (6/21)
Length of Visible Light 15h 38m
Length of Day
14h 37m
Waxing Crescent, 5% of the Moon is Illuminated
Jun 21
Waxing Crescent
Jun 26
First Quarter
Jul 3
Full
Jul 10
Last Quarter
Jul 18
New

Hourly Weather History & Observations

Time (PDT) Temp. Dew Point Humidity Pressure Visibility Wind Dir Wind Speed Gust Speed Precip Events Conditions
12:53 AM 82.9 °F 28.9 °F 14% 29.74 in 10.0 mi NNW 4.6 mph - N/A   Clear
1:53 AM 81.0 °F 25.0 °F 13% 29.74 in 10.0 mi NNW 3.5 mph - N/A   Clear
2:53 AM 79.0 °F 28.0 °F 15% 29.74 in 10.0 mi NNW 3.5 mph - N/A   Clear
3:53 AM 78.1 °F 30.0 °F 17% 29.74 in 10.0 mi Calm Calm - N/A   Clear
4:53 AM 79.0 °F 26.1 °F 14% 29.75 in 10.0 mi Calm Calm - N/A   Clear
5:53 AM 81.0 °F 21.9 °F 11% 29.77 in 10.0 mi Calm Calm - N/A   Clear
6:53 AM 82.0 °F 23.0 °F 11% 29.78 in 10.0 mi South 3.5 mph - N/A   Clear
7:53 AM 86.0 °F 24.1 °F 10% 29.79 in 10.0 mi Calm Calm - N/A   Clear
8:53 AM 91.0 °F 21.0 °F 8% 29.80 in 10.0 mi ESE 5.8 mph - N/A   Clear
9:53 AM 93.0 °F 19.9 °F 7% 29.80 in 10.0 mi Variable 6.9 mph - N/A   Clear
10:53 AM 95.0 °F 19.9 °F 7% 29.78 in 10.0 mi SSE 4.6 mph - N/A   Clear
11:53 AM 98.1 °F 19.9 °F 6% 29.77 in 10.0 mi South 6.9 mph - N/A   Clear
12:53 PM 102.0 °F 21.0 °F 6% 29.74 in 10.0 mi SSW 8.1 mph - N/A   Clear
1:53 PM 102.9 °F 19.9 °F 5% 29.70 in 10.0 mi Calm Calm - N/A   Clear
2:53 PM 106.0 °F 17.1 °F 4% 29.68 in 10.0 mi SSE 19.6 mph 31.1 mph N/A   Clear
3:53 PM 106.0 °F 15.1 °F 4% 29.65 in 10.0 mi South 16.1 mph 26.5 mph N/A   Clear
4:53 PM 105.1 °F 16.0 °F 4% 29.64 in 10.0 mi South 18.4 mph 24.2 mph N/A   Clear
5:53 PM 104.0 °F 15.1 °F 4% 29.62 in 10.0 mi SSW 12.7 mph - N/A   Clear
6:53 PM 102.0 °F 17.1 °F 5% 29.62 in 10.0 mi South 17.3 mph - N/A   Clear
7:53 PM 99.0 °F 19.0 °F 6% 29.63 in 10.0 mi SSW 17.3 mph 24.2 mph N/A   Clear
8:53 PM 97.0 °F 21.0 °F 6% 29.64 in 10.0 mi SSW 16.1 mph - N/A   Clear
9:53 PM 93.9 °F 19.0 °F 7% 29.65 in 10.0 mi SSW 12.7 mph - N/A   Clear
10:53 PM 93.0 °F 19.0 °F 7% 29.65 in 10.0 mi SSW 16.1 mph - N/A   Clear
11:53 PM 91.0 °F 32.0 °F 12% 29.66 in 10.0 mi SW 11.5 mph - N/A   Clear